Location: Leuk
(46.3174°N, 7.6341°E)
Time: 18:32:42
(UTC+00:00)

Cosmos 2221 - Pass Details

Date: 09 March 2021
Orbit: 592 x 616 km, 82.5° (Epoch: 16 April)

Event Time Altitude Azimuth Distance (km) Brightness Sun altitude
Exits shadow 02:53:30 28° 24° (NNE) 1,167 4.3 -30.9°
Drops below altitude 10° 02:55:37 10° 16° (NNE) 1,969 5.6 -30.6°
Sets 02:57:51 0° 13° (NNE) 2,874 6.5 -30.2°
